PBO Station Position Time Series. Reference Frame : NAM14
Format Version,1.1.1
4-character ID,P601
Station name,GeologyRd_CS2006
Begin Date, 2006-03-30
End Date, 2023-06-26
Release Date, 2023-06-27
Reference position, 33.9592967056 North Latitude, -116.0802284740 East Longitude, 1242.62910 meters elevation,
Date, North (mm), East (mm), Vertical (mm), North Std. Deviation (mm), East Std. Deviation (mm),              Vertical Std. Deviation (mm), Quality,
2006-03-30,0.00, 0.00, 0.00, 1.90, 1.64, 7.33, repro,
2006-03-31,0.73, 1.39, 2.88, 1.88, 1.63, 7.28, repro,
2006-04-01,-0.54, -1.66, 6.31, 1.88, 1.64, 7.32, repro,
2006-04-02,0.17, -0.66, -4.49, 1.92, 1.69, 7.59, repro,
2006-04-03,0.26, 0.55, -0.47, 1.90, 1.63, 7.36, repro,
2006-04-04,-1.25, -2.36, -15.27, 1.91, 1.65, 7.40, repro,
2006-04-05,-4.04, -1.62, -1.66, 1.93, 1.69, 7.62, repro,
2006-04-06,1.46, 0.66, 2.31, 1.91, 1.67, 7.46, repro,
2006-04-07,0.53, 0.20, -1.33, 1.97, 1.71, 7.60, repro,
2006-04-08,1.01, 1.02, -5.23, 2.02, 1.67, 7.81, repro,
2006-04-09,0.05, -0.41, -0.92, 1.89, 1.63, 7.34, repro,
2006-04-10,0.14, -1.02, -0.56, 1.91, 1.63, 7.34, repro,
2006-04-11,0.71, 0.65, 2.08, 1.97, 1.65, 7.71, repro,
2006-04-12,0.39, -0.34, -3.34, 1.96, 1.65, 7.69, repro,
2006-04-13,1.03, -2.84, -4.17, 1.88, 1.63, 7.31, repro,
2006-04-14,-2.17, -2.25, 0.57, 1.91, 1.63, 7.38, repro,
2006-04-15,0.75, -1.44, -3.47, 1.96, 1.65, 7.53, repro,
2006-04-16,0.01, 0.55, 8.10, 1.90, 1.62, 7.34, repro,
2006-04-17,0.48, -0.20, 6.86, 1.90, 1.62, 7.35, repro,
2006-04-18,0.25, -0.03, 0.26, 1.90, 1.66, 7.49, repro,
2006-04-19,0.97, 0.06, -2.21, 1.89, 1.63, 7.33, repro,
2006-04-20,-0.00, 0.48, 0.80, 1.92, 1.65, 7.48, repro,
2006-04-21,0.03, -0.67, 3.02, 1.90, 1.62, 7.32, repro,
2006-04-22,0.72, 0.85, 5.32, 1.90, 1.63, 7.33, repro,
2006-04-23,-0.85, 1.80, 3.67, 1.93, 1.68, 7.53, repro,
2006-04-24,-0.30, -0.23, -5.88, 1.91, 1.68, 7.48, repro,
2006-04-25,0.57, -0.75, -3.83, 1.94, 1.76, 7.69, repro,
2006-04-26,1.29, 0.98, 0.68, 1.91, 1.67, 7.43, repro,
2006-04-27,0.43, 0.01, -6.45, 1.97, 1.69, 7.59, repro,
2006-04-28,-0.54, -0.42, 1.12, 1.95, 1.64, 7.45, repro,
2006-04-29,0.95, -0.68, -5.01, 1.91, 1.63, 7.42, repro,
2006-04-30,0.81, -1.23, -0.82, 1.89, 1.63, 7.33, repro,
2006-05-01,0.55, -0.79, -4.38, 1.89, 1.62, 7.31, repro,
2006-05-02,-0.13, 1.44, -1.29, 1.90, 1.63, 7.36, repro,
2006-05-03,0.91, 0.55, 0.72, 1.90, 1.62, 7.34, repro,
2006-05-04,0.02, 0.14, -1.28, 1.90, 1.63, 7.38, repro,
2006-05-05,2.16, -0.43, -0.77, 1.91, 1.63, 7.39, repro,
2006-05-06,1.16, -0.46, -6.78, 1.88, 1.62, 7.27, repro,
2006-05-07,1.40, -0.45, 5.31, 1.89, 1.62, 7.34, repro,
2006-05-08,-0.07, -0.02, 3.78, 1.90, 1.63, 7.38, repro,
2006-05-09,0.48, 0.31, 6.23, 1.96, 1.64, 7.57, repro,
2006-05-10,0.69, 1.07, 0.74, 1.90, 1.63, 7.40, repro,
2006-05-11,0.53, -0.74, -0.18, 1.90, 1.63, 7.37, repro,
2006-05-12,0.26, -0.26, 2.78, 1.89, 1.63, 7.37, repro,
2006-05-13,1.02, -0.18, 1.22, 1.91, 1.63, 7.41, repro,
2006-05-14,0.24, 0.20, 3.40, 1.95, 1.65, 7.54, repro,
2006-05-15,-0.75, -0.78, -6.63, 1.91, 1.63, 7.40, repro,
2006-05-16,0.36, 0.07, -1.80, 1.93, 1.66, 7.45, repro,
2006-05-17,-0.01, 0.66, -2.56, 1.97, 1.68, 7.59, repro,
2006-05-18,0.87, -0.55, 1.03, 1.94, 1.63, 7.47, repro,
2006-05-19,0.25, 0.22, -4.26, 2.03, 1.67, 7.79, repro,
2006-05-20,-1.83, 0.81, 4.10, 2.01, 1.67, 7.73, repro,
2006-05-21,-0.91, -1.83, 1.57, 2.02, 1.66, 7.73, repro,
2006-05-22,-0.09, 0.00, -0.71, 2.00, 1.68, 7.67, repro,
2006-05-23,1.11, -0.47, -1.85, 1.97, 1.63, 7.54, repro,
2006-05-24,-0.70, -0.16, 5.37, 2.02, 1.68, 7.78, repro,
2006-05-25,-0.31, -0.78, 3.82, 2.14, 1.73, 8.24, repro,
2006-05-26,-0.51, 0.69, 4.15, 2.06, 1.66, 7.89, repro,
2006-05-27,1.06, 0.41, 3.13, 1.97, 1.64, 7.52, repro,
2006-05-28,0.73, -0.22, 3.58, 1.96, 1.64, 7.53, repro,
2006-05-29,-0.03, 0.27, 4.52, 2.02, 1.68, 7.76, repro,
2006-05-30,0.62, -0.19, 0.33, 2.06, 1.71, 7.91, repro,
2006-05-31,-0.10, 0.48, -1.84, 2.06, 1.71, 7.87, repro,
2006-06-01,-0.42, -0.00, -1.12, 2.00, 1.67, 7.70, repro,
2006-06-02,0.62, -0.51, 1.59, 2.09, 1.73, 7.94, repro,
2006-06-03,-0.67, 0.37, 0.41, 2.05, 1.70, 7.85, repro,
2006-06-04,-0.58, -0.06, 3.72, 2.04, 1.67, 7.73, repro,
2006-06-05,-0.38, -0.80, 3.92, 2.06, 1.70, 7.86, repro,
2006-06-06,0.12, -0.26, 0.94, 2.06, 1.71, 7.84, repro,
2006-06-07,-0.33, 0.26, 0.86, 2.05, 1.70, 7.81, repro,
2006-06-08,-0.71, -0.16, -2.35, 1.98, 1.64, 7.57, repro,
2006-06-09,1.22, 4.76, 13.29, 2.01, 1.68, 7.76, repro,
2006-06-10,-0.65, 0.46, 3.71, 2.00, 1.64, 7.60, repro,
2006-06-11,0.03, -0.35, 6.16, 2.01, 1.67, 7.74, repro,
2006-06-12,-0.40, 1.51, 12.61, 2.04, 1.74, 7.83, repro,
2006-06-13,-1.15, -0.07, 1.14, 2.06, 1.72, 7.94, repro,
2006-06-14,-0.32, 0.45, 3.00, 1.97, 1.63, 7.52, repro,
2006-06-15,-0.64, -0.01, 4.62, 1.98, 1.64, 7.63, repro,
2006-06-16,2.34, 0.26, 9.98, 2.00, 1.64, 7.64, repro,
2006-06-17,0.56, 0.35, 3.96, 1.96, 1.64, 7.55, repro,
2006-06-18,0.06, 0.31, 8.46, 1.98, 1.66, 7.68, repro,
2006-06-19,-0.48, 0.31, 2.05, 1.98, 1.67, 7.70, repro,
2006-06-20,-0.41, -0.29, 11.72, 1.99, 1.67, 7.74, repro,
2006-06-21,0.48, 0.12, 7.08, 2.01, 1.69, 7.89, repro,
2006-06-22,-0.92, 0.01, 3.75, 2.04, 1.73, 7.95, repro,
2006-06-23,-0.07, 0.28, 0.81, 2.04, 1.72, 7.89, repro,
2006-06-24,0.29, 0.07, -2.21, 2.03, 1.72, 7.92, repro,
2006-06-25,0.87, 1.28, -5.56, 2.03, 1.75, 7.96, repro,
2006-06-26,0.16, 1.51, 0.77, 2.11, 1.81, 8.16, repro,
2006-06-27,0.35, 0.02, 4.89, 2.11, 1.81, 8.18, repro,
2006-06-28,0.14, 2.31, 5.02, 2.05, 1.74, 7.99, repro,
2006-06-29,-0.24, 0.25, 5.57, 1.97, 1.70, 7.70, repro,
2006-06-30,-2.49, 1.02, 1.46, 2.00, 1.69, 7.86, repro,
2006-07-01,-0.48, 0.53, 6.62, 2.00, 1.69, 7.87, repro,
2006-07-02,-0.27, 1.24, 3.80, 2.02, 1.68, 7.83, repro,
2006-07-03,-1.71, 0.80, -4.22, 2.05, 1.66, 7.96, repro,
2006-07-04,-1.62, -0.42, -0.25, 1.97, 1.64, 7.72, repro,
2006-07-05,-0.93, 0.90, 4.50, 2.01, 1.71, 7.91, repro,
2006-07-06,-0.84, 0.14, -2.01, 1.97, 1.64, 7.68, repro,
2006-07-07,-1.97, 0.90, -8.41, 2.03, 1.71, 7.94, repro,
2006-07-08,-0.11, 0.41, -3.52, 2.11, 1.73, 8.21, repro,
2006-07-09,0.14, 2.97, -1.25, 2.19, 1.81, 8.60, repro,
2006-07-10,-2.76, -1.51, 3.81, 2.01, 1.65, 7.81, repro,
2006-07-11,-0.53, 1.26, 7.40, 1.98, 1.66, 7.75, repro,
2006-07-12,-1.73, 1.06, -3.99, 1.97, 1.65, 7.73, repro,
2006-07-13,1.12, 4.36, -0.43, 1.99, 1.65, 7.72, repro,
2006-07-14,-2.08, 2.41, 2.58, 1.98, 1.65, 7.74, repro,
2006-07-15,-0.55, -0.56, 2.05, 1.97, 1.64, 7.71, repro,
2006-07-16,-0.02, 0.50, 5.89, 1.98, 1.65, 7.76, repro,
2006-07-17,0.39, -1.46, -4.81, 2.06, 1.76, 8.15, repro,
2006-07-18,-0.77, 0.79, 1.08, 1.91, 1.63, 7.41, repro,
2006-07-19,1.02, 1.85, 7.21, 1.91, 1.63, 7.43, repro,
2006-07-20,0.80, 3.12, -1.80, 2.16, 1.77, 8.33, repro,
2006-07-21,-0.86, 1.90, 3.05, 1.91, 1.63, 7.43, repro,
2006-07-22,1.21, 2.00, -5.73, 1.89, 1.64, 7.38, repro,
2006-07-23,-0.95, 0.61, 9.94, 1.94, 1.70, 7.60, repro,
2006-07-24,-0.48, 1.21, 4.49, 1.99, 1.66, 7.74, repro,
2006-07-25,1.21, 3.30, 5.62, 1.99, 1.74, 7.76, repro,
2006-07-26,0.25, 0.12, 6.85, 1.95, 1.69, 7.50, repro,
2006-07-27,0.53, 1.43, 5.91, 1.89, 1.62, 7.32, repro,
2006-07-28,0.75, 1.13, 4.64, 1.95, 1.69, 7.52, repro,
2006-07-29,0.14, 0.67, -3.06, 1.91, 1.63, 7.43, repro,
2006-07-30,-1.29, 1.84, 3.79, 1.93, 1.63, 7.46, repro,
2006-07-31,-0.39, 1.51, 7.64, 1.90, 1.61, 7.32, repro,
2006-08-01,-0.26, 1.82, 3.81, 1.91, 1.62, 7.38, repro,
2006-08-02,0.46, 1.54, 3.67, 1.92, 1.66, 7.59, repro,
2006-08-03,0.50, 0.52, 0.17, 1.94, 1.69, 7.68, repro,
2006-08-04,-0.36, 3.58, 1.08, 2.00, 1.69, 7.84, repro,
2006-08-05,0.80, 1.98, 0.87, 1.99, 1.74, 7.84, repro,
2006-08-06,-0.97, 1.52, -0.60, 1.93, 1.66, 7.61, repro,
2006-08-07,1.19, 3.17, 4.87, 1.94, 1.67, 7.65, repro,
2006-08-08,2.88, 4.13, -1.05, 1.94, 1.70, 7.55, repro,
2006-08-09,0.00, 1.41, -1.03, 1.99, 1.75, 7.91, repro,
2006-08-10,0.85, 0.38, -10.54, 2.23, 1.98, 8.65, repro,
2006-08-11,0.27, 0.29, 2.54, 1.92, 1.64, 7.48, repro,
2006-08-12,0.36, 0.59, 1.13, 1.90, 1.61, 7.34, repro,
2006-08-13,3.35, 1.15, 13.31, 1.91, 1.64, 7.44, repro,
2006-08-14,2.88, 2.95, 5.09, 1.95, 1.69, 7.52, repro,
2006-08-15,1.31, 3.62, 3.48, 2.03, 1.72, 7.74, repro,
2006-08-16,2.44, 2.43, 4.60, 1.93, 1.64, 7.49, repro,
2006-08-17,0.03, 1.83, 4.02, 1.95, 1.69, 7.51, repro,
2006-08-18,2.05, 2.86, 5.75, 1.96, 1.74, 7.65, repro,
2006-08-19,1.18, 0.70, -4.07, 1.90, 1.63, 7.39, repro,
2006-08-20,0.10, 3.23, 0.63, 1.90, 1.62, 7.35, repro,
2006-08-21,0.53, 0.77, 4.85, 1.95, 1.67, 7.56, repro,
2006-08-22,0.19, 3.18, -6.57, 1.94, 1.67, 7.56, repro,
2006-08-23,-1.43, 4.26, 11.45, 2.03, 1.84, 8.25, repro,
2006-08-24,1.39, 1.29, 9.65, 1.93, 1.66, 7.48, repro,
2006-08-25,0.43, 1.45, 12.19, 1.95, 1.68, 7.62, repro,
2006-08-26,0.61, 0.51, 4.58, 1.97, 1.72, 7.77, repro,
2006-08-27,0.58, 0.84, 0.93, 1.98, 1.75, 7.91, repro,
2006-08-28,-0.34, 1.40, 0.27, 1.98, 1.73, 7.83, repro,
2006-08-29,1.31, 2.16, -4.25, 1.98, 1.73, 7.82, repro,
2006-08-30,0.57, 3.29, 7.37, 2.03, 1.75, 8.01, repro,
2006-08-31,0.78, 1.21, 17.60, 2.05, 1.83, 8.16, repro,
2006-09-01,-0.87, 1.82, -0.58, 2.03, 1.78, 8.03, repro,
2006-09-02,-0.14, 2.07, -2.69, 2.17, 2.03, 8.84, repro,
2006-09-03,-0.39, 3.97, 2.94, 1.97, 1.74, 7.87, repro,
2006-09-04,-0.09, 5.25, -5.51, 2.03, 1.79, 8.07, repro,
2006-09-05,-0.70, 1.69, 1.15, 2.03, 1.78, 8.02, repro,
2006-09-06,-0.22, 4.48, -11.15, 2.24, 2.04, 8.98, repro,
2006-09-07,-1.26, 5.86, -2.92, 2.16, 2.00, 8.97, repro,
2006-09-08,3.04, 1.78, -1.78, 2.02, 1.80, 8.08, repro,
2006-09-09,2.46, 2.16, -5.94, 1.95, 1.70, 7.62, repro,
2006-09-10,0.49, 2.35, -0.78, 1.94, 1.70, 7.56, repro,
2006-09-11,1.45, 2.09, 0.94, 1.97, 1.74, 7.73, repro,
2006-09-12,0.22, 2.51, -1.62, 1.94, 1.70, 7.60, repro,
2006-09-13,0.92, 1.30, -4.95, 1.98, 1.75, 7.82, repro,
2006-09-14,-0.31, 1.58, 2.83, 2.06, 1.78, 7.95, repro,
2006-09-15,5.12, 1.87, 1.14, 1.99, 1.67, 7.67, repro,
2006-09-16,0.08, 1.08, 6.49, 1.92, 1.65, 7.45, repro,
2006-09-17,0.64, 1.80, -0.68, 1.92, 1.65, 7.45, repro,
2006-09-18,0.32, 2.26, 4.49, 1.93, 1.66, 7.53, repro,
2006-09-19,1.15, 1.65, 2.35, 1.93, 1.65, 7.47, repro,
2006-09-20,0.25, 2.30, -2.10, 1.92, 1.65, 7.46, repro,
2006-09-21,0.73, 1.49, 1.95, 1.94, 1.69, 7.58, repro,
2006-09-22,0.27, 1.41, 2.03, 2.03, 1.76, 7.93, repro,
2006-09-23,1.14, 1.10, -2.59, 2.01, 1.72, 7.77, repro,
2006-09-24,1.00, 2.40, -5.10, 2.12, 1.77, 8.35, repro,
2006-09-25,1.72, 1.91, -4.67, 2.05, 1.70, 7.94, repro,
2006-09-26,0.70, 0.97, -2.91, 2.03, 1.75, 7.73, repro,
2006-09-27,0.88, 1.42, -3.54, 2.06, 1.79, 7.95, repro,
2006-09-28,-0.50, 0.45, 0.99, 2.01, 1.74, 7.82, repro,
2006-09-29,0.86, 0.78, 3.66, 2.06, 1.82, 8.22, repro,
2006-09-30,1.24, 2.06, 9.43, 1.98, 1.71, 7.69, repro,
2006-10-01,2.51, 1.71, 5.66, 2.00, 1.76, 7.88, repro,
2006-10-02,1.46, 2.34, -1.76, 2.03, 1.81, 7.94, repro,
2006-10-03,1.23, 2.80, -5.65, 2.11, 1.90, 8.24, repro,
2006-10-04,-1.50, 0.17, -11.38, 2.01, 1.71, 7.74, repro,
2006-10-05,-0.90, -0.90, -4.27, 2.03, 1.71, 7.98, repro,
2006-10-06,-0.35, 1.64, -6.02, 2.01, 1.71, 7.94, repro,
2006-10-07,1.32, 1.40, -2.18, 2.04, 1.83, 8.27, repro,
2006-10-08,0.02, 0.72, -8.77, 2.03, 1.76, 8.08, repro,
2006-10-09,0.24, 0.08, -1.69, 2.04, 1.77, 8.14, repro,
2006-10-10,1.24, 1.00, -2.83, 1.99, 1.72, 7.83, repro,
2006-10-11,0.17, 1.73, 2.11, 2.00, 1.77, 7.93, repro,
2006-10-12,0.59, 0.98, 7.39, 1.96, 1.69, 7.62, repro,
2006-10-13,1.03, 0.20, 11.44, 1.90, 1.67, 7.51, repro,
2006-10-14,0.16, 1.32, 4.87, 1.94, 1.72, 7.71, repro,
2006-10-15,-0.97, 2.26, 8.67, 1.98, 1.73, 7.77, repro,
2006-10-16,1.08, 0.12, 10.24, 1.95, 1.68, 7.61, repro,
2006-10-17,1.53, 0.27, 7.73, 1.95, 1.74, 7.82, repro,
2006-10-18,1.33, 0.73, 0.40, 2.01, 1.76, 8.04, repro,
2006-10-19,1.32, 0.55, 0.76, 2.12, 1.80, 8.45, repro,
2006-10-20,0.80, 0.49, 0.36, 2.21, 1.95, 9.35, repro,
2006-10-21,0.51, 0.98, -0.79, 2.11, 1.82, 8.64, repro,
2006-10-22,0.28, 0.78, -3.13, 1.92, 1.75, 7.76, repro,
2006-10-23,1.31, 0.89, 0.91, 2.06, 1.82, 8.26, repro,
2006-10-24,-0.04, 0.30, 1.91, 1.99, 1.79, 7.98, repro,
2006-10-25,0.60, 1.67, 6.51, 2.02, 1.82, 7.95, repro,
2006-10-26,1.42, 1.32, -3.37, 1.94, 1.75, 7.63, repro,
2006-10-27,1.49, 1.80, -2.83, 1.90, 1.73, 7.64, repro,
2006-10-28,0.86, 1.19, 0.19, 2.07, 1.78, 8.38, repro,
2006-10-29,0.12, 1.35, 3.07, 1.93, 1.75, 7.71, repro,
2006-10-30,-0.03, 0.84, 4.22, 1.88, 1.68, 7.45, repro,
2006-10-31,-0.12, -0.08, 0.07, 1.90, 1.69, 7.46, repro,
2006-11-01,0.45, 1.24, 3.46, 2.00, 1.86, 8.10, repro,
2006-11-02,0.45, 3.00, -0.04, 1.91, 1.71, 7.58, repro,
2006-11-03,0.62, 1.69, 2.97, 1.92, 1.75, 7.63, repro,
2006-11-04,0.40, 1.16, -1.17, 1.98, 1.75, 7.77, repro,
2006-11-05,0.36, 0.77, -0.23, 1.99, 1.77, 7.81, repro,
2006-11-06,0.09, 1.78, -2.36, 1.90, 1.71, 7.59, repro,
2006-11-07,0.91, 2.31, 2.01, 2.00, 1.82, 8.07, repro,
2006-11-08,0.27, 1.84, 9.72, 1.99, 1.78, 7.90, repro,
2006-11-09,0.20, 1.87, 12.84, 1.99, 1.82, 8.07, repro,
2006-11-10,0.24, 1.61, -2.44, 1.94, 1.68, 7.62, repro,
2006-11-11,0.32, 1.50, 0.04, 1.97, 1.74, 7.88, repro,
2006-11-12,0.25, 0.90, -2.77, 2.00, 1.81, 8.11, repro,
2006-11-13,0.73, 0.40, 5.13, 1.97, 1.74, 7.83, repro,
2006-11-14,0.72, -0.35, 10.43, 1.90, 1.66, 7.51, repro,
2006-11-15,0.19, 2.03, -0.12, 1.86, 1.64, 7.33, repro,
2006-11-16,0.86, 1.59, 0.98, 1.86, 1.64, 7.34, repro,
2006-11-17,0.81, 1.52, 2.55, 1.87, 1.66, 7.43, repro,
2006-11-18,-0.62, 1.83, -0.43, 1.87, 1.65, 7.39, repro,
2006-11-19,0.09, 0.73, -6.69, 1.88, 1.65, 7.38, repro,
2006-11-20,-0.19, 2.39, -3.03, 1.87, 1.64, 7.33, repro,
2006-11-21,0.30, 2.16, -0.63, 1.87, 1.64, 7.34, repro,
2006-11-22,0.58, 2.37, -1.57, 1.90, 1.71, 7.57, repro,
2006-11-23,0.27, 3.34, 2.85, 1.90, 1.69, 7.58, repro,
2006-11-24,-0.15, 0.72, -1.15, 1.94, 1.72, 7.69, repro,
2006-11-25,0.25, 1.31, 4.32, 1.91, 1.66, 7.44, repro,
2006-11-26,-0.01, 1.84, -0.14, 1.91, 1.67, 7.49, repro,
2006-11-27,1.65, 0.20, -2.02, 1.90, 1.67, 7.48, repro,
2006-11-28,-0.49, -1.49, 1.91, 1.88, 1.66, 7.39, repro,
2006-11-29,-2.72, 1.34, -0.05, 1.89, 1.67, 7.43, repro,
2006-11-30,1.73, 1.55, -7.42, 1.87, 1.65, 7.36, repro,
2006-12-01,-0.36, 1.97, -7.19, 1.87, 1.65, 7.35, repro,
2006-12-02,-0.02, 0.98, -10.28, 1.86, 1.66, 7.35, repro,
2006-12-03,-0.05, 1.37, -5.52, 1.87, 1.67, 7.41, repro,
2006-12-04,1.06, 1.21, -8.70, 1.93, 1.67, 7.56, repro,
2006-12-05,0.23, 1.17, -3.50, 1.96, 1.78, 7.66, repro,
2006-12-06,0.45, 1.53, -2.14, 1.96, 1.78, 7.72, repro,
2006-12-07,0.08, 0.66, -4.48, 1.90, 1.73, 7.53, repro,
2006-12-08,0.68, 1.44, -4.32, 1.91, 1.73, 7.52, repro,
2006-12-09,0.39, 1.23, 0.98, 2.07, 1.86, 8.12, repro,
2006-12-10,-0.21, -2.10, 5.30, 2.03, 1.78, 7.88, repro,
2006-12-11,0.31, -0.23, -8.85, 1.88, 1.68, 7.40, repro,
2006-12-12,0.95, 1.20, -6.24, 2.00, 1.76, 7.92, repro,
2006-12-13,0.26, 0.53, -2.76, 1.90, 1.74, 7.53, repro,
2006-12-14,1.59, 0.93, 2.75, 1.91, 1.74, 7.58, repro,
2006-12-15,2.40, 0.27, 1.98, 1.98, 1.79, 7.87, repro,
2006-12-16,0.62, 0.74, 1.06, 1.96, 1.76, 7.69, repro,
2006-12-17,-1.20, -1.08, -6.42, 2.03, 1.82, 8.15, repro,
2006-12-18,0.95, 0.25, -2.83, 2.04, 1.84, 8.23, repro,
2006-12-19,-0.05, 1.36, -3.33, 1.99, 1.85, 7.97, repro,
2006-12-20,0.02, 0.95, -1.30, 2.06, 1.88, 8.21, repro,
2006-12-21,-1.09, 1.39, -4.86, 1.90, 1.80, 7.58, repro,
2006-12-22,1.01, 0.80, -0.78, 2.05, 1.92, 8.21, repro,
2006-12-23,2.07, 2.95, -9.67, 1.94, 1.76, 7.86, repro,
2006-12-24,-0.73, 1.82, -5.18, 1.86, 1.67, 7.37, repro,
2006-12-25,0.23, 1.49, -12.83, 1.95, 1.81, 7.70, repro,
2006-12-26,0.79, 0.46, -0.63, 1.95, 1.76, 7.84, repro,
2006-12-27,0.15, 0.93, 5.01, 1.99, 1.80, 8.01, repro,
2006-12-28,-0.86, 1.79, -2.91, 2.14, 1.98, 8.66, repro,
2006-12-29,-3.18, 2.07, -1.74, 2.01, 1.84, 8.06, repro,
2006-12-30,1.58, 2.53, -2.13, 1.94, 1.77, 7.71, repro,
2006-12-31,0.13, 1.38, -3.86, 2.09, 1.91, 8.57, repro,
2007-01-01,-0.66, 0.16, -0.71, 2.11, 1.91, 8.36, repro,
2007-01-02,1.33, 2.17, -9.01, 2.06, 1.92, 8.27, repro,
2007-01-03,0.52, 1.88, -3.93, 1.93, 1.80, 7.60, repro,
2007-01-04,1.33, 1.83, 3.70, 1.89, 1.75, 7.53, repro,
2007-01-05,0.58, -1.02, -6.33, 1.87, 1.70, 7.45, repro,
2007-01-06,2.01, 1.80, -2.31, 1.89, 1.74, 7.46, repro,
2007-01-07,2.53, -0.35, -5.20, 1.90, 1.69, 7.45, repro,
2007-01-08,1.58, 0.80, -8.12, 1.98, 1.80, 7.71, repro,
2007-01-09,0.03, 1.03, -9.22, 1.92, 1.70, 7.39, repro,
2007-01-10,0.30, 2.06, -5.39, 1.90, 1.69, 7.34, repro,
2007-01-11,2.79, -0.53, -0.28, 1.96, 1.70, 7.60, repro,
2007-01-12,0.96, 0.85, -6.73, 1.87, 1.64, 7.30, repro,
2007-01-13,0.48, 1.88, -10.01, 1.82, 1.62, 7.07, repro,
2007-01-14,0.16, 2.13, -11.21, 1.83, 1.62, 7.11, repro,
2007-01-15,0.28, 2.00, -15.58, 1.83, 1.63, 7.12, repro,
2007-01-16,0.45, 2.59, -12.96, 1.88, 1.64, 7.32, repro,
2007-01-17,0.71, 2.15, -10.54, 1.87, 1.69, 7.29, repro,
2007-01-18,-0.30, 2.41, -16.39, 1.86, 1.67, 7.23, repro,
2007-01-19,0.29, 1.22, -5.30, 1.89, 1.65, 7.39, repro,
2007-01-20,0.31, 1.80, -5.55, 1.89, 1.65, 7.40, repro,
2007-01-21,0.09, 2.01, -9.20, 1.84, 1.64, 7.15, repro,
2007-01-22,1.85, 2.47, -5.28, 1.85, 1.64, 7.20, repro,
2007-01-23,0.82, 2.38, -14.39, 1.83, 1.63, 7.09, repro,
2007-01-24,0.12, 2.19, -11.27, 1.84, 1.63, 7.11, repro,
2007-01-25,0.69, 2.37, -11.88, 1.88, 1.66, 7.20, repro,
2007-01-26,-0.02, 1.98, -6.92, 1.84, 1.63, 7.11, repro,
2007-01-27,1.10, 4.88, -6.14, 1.85, 1.64, 7.17, repro,
2007-01-28,0.07, 2.88, -7.08, 1.83, 1.63, 7.07, repro,
2007-01-29,-0.35, 2.73, -7.94, 1.84, 1.63, 7.08, repro,
2007-01-30,0.41, 2.59, -8.41, 1.84, 1.63, 7.09, repro,
2007-01-31,-1.03, 1.69, -1.46, 1.83, 1.62, 7.05, repro,
2007-02-01,-0.62, 2.10, -2.81, 1.86, 1.66, 7.25, repro,
2007-02-02,-0.74, 3.01, -5.85, 1.89, 1.65, 7.36, repro,
2007-02-03,-0.13, 2.53, -8.04, 1.87, 1.64, 7.29, repro,
2007-02-04,0.01, 1.77, -7.97, 1.83, 1.62, 7.07, repro,
2007-02-05,0.24, 2.63, -11.34, 1.83, 1.62, 7.05, repro,
2007-02-06,0.06, 2.07, -10.29, 1.87, 1.63, 7.18, repro,
2007-02-07,0.76, 3.49, -7.87, 1.84, 1.62, 7.09, repro,
2007-02-08,0.08, 4.25, -7.64, 1.90, 1.71, 7.36, repro,
2007-02-09,-0.29, 2.98, -2.54, 1.88, 1.70, 7.30, repro,
2007-02-10,1.39, 4.09, -3.86, 1.84, 1.63, 7.11, repro,
2007-02-11,2.49, 2.52, -3.31, 1.90, 1.74, 7.41, repro,
2007-02-12,-0.52, 2.58, -6.26, 1.83, 1.61, 7.07, repro,
2007-02-13,-1.76, 2.47, -2.56, 1.83, 1.63, 7.09, repro,
2007-02-14,-1.13, 2.34, -10.06, 1.85, 1.63, 7.10, repro,
2007-02-15,-1.47, 3.88, -10.34, 1.84, 1.63, 7.09, repro,
2007-02-16,1.11, 1.73, -10.66, 1.83, 1.62, 7.14, repro,
2007-02-17,0.46, 3.78, -3.14, 1.86, 1.66, 7.15, repro,
2007-02-18,0.04, 2.92, -3.55, 1.85, 1.61, 7.12, repro,
2007-02-19,-0.29, 4.35, 6.49, 1.85, 1.63, 7.13, repro,
2007-02-20,1.19, 2.17, -0.64, 1.85, 1.62, 7.15, repro,
2007-02-21,0.29, 3.23, 0.01, 1.85, 1.61, 7.12, repro,
2007-02-22,-1.06, 2.05, -4.18, 1.84, 1.61, 7.09, repro,
2007-02-23,-1.59, -1.11, -1.76, 1.92, 1.68, 7.35, repro,
2007-02-24,0.02, 2.23, -2.66, 1.85, 1.62, 7.09, repro,
2007-02-25,-0.89, 1.46, -1.91, 1.86, 1.63, 7.18, repro,
2007-02-26,0.43, 0.47, -1.55, 1.85, 1.62, 7.13, repro,
2007-02-27,-3.13, -0.85, 10.79, 1.85, 1.61, 7.10, repro,
2007-02-28,-0.66, 1.25, 7.12, 1.84, 1.61, 7.11, repro,
2007-03-01,0.01, 3.09, 2.38, 1.90, 1.69, 7.37, repro,
2007-03-02,-1.53, 2.34, -2.03, 1.90, 1.69, 7.36, repro,
2007-03-03,1.64, 3.29, -6.23, 1.87, 1.65, 7.23, repro,
2007-03-04,0.88, 3.11, -6.72, 1.86, 1.64, 7.17, repro,
2007-03-05,0.44, 3.16, -5.29, 1.86, 1.63, 7.16, repro,
2007-03-06,-0.19, 2.38, -4.90, 1.88, 1.66, 7.26, repro,
2007-03-07,0.87, 2.71, 0.64, 1.86, 1.65, 7.21, repro,
2007-03-08,0.54, 1.85, -0.83, 1.88, 1.65, 7.22, repro,
2007-03-09,0.38, 2.36, -0.94, 1.87, 1.65, 7.26, repro,
2007-03-10,0.31, 3.27, -1.53, 1.91, 1.70, 7.41, repro,
2007-03-11,0.00, 2.22, -4.41, 1.87, 1.65, 7.21, repro,
2007-03-12,0.11, 2.89, -5.46, 1.88, 1.69, 7.40, repro,
2007-03-13,-0.30, 1.87, 0.36, 1.84, 1.61, 7.07, repro,
2007-03-14,-0.39, 3.26, -2.20, 1.90, 1.69, 7.46, repro,
2007-03-15,0.90, 3.34, -3.58, 1.90, 1.69, 7.35, repro,
2007-03-16,0.32, 2.12, -2.33, 1.88, 1.64, 7.20, repro,
2007-03-17,0.14, 1.89, 2.80, 1.85, 1.61, 7.10, repro,
2007-03-18,-0.47, 2.55, 6.27, 1.89, 1.69, 7.42, repro,
2007-03-19,0.16, 2.07, 2.57, 1.87, 1.64, 7.23, repro,
2007-03-20,0.29, 2.04, 2.93, 1.95, 1.68, 7.49, repro,
2007-03-21,-0.22, 2.15, 10.22, 1.97, 1.73, 7.73, repro,
2007-03-22,-1.26, 1.33, 3.37, 1.88, 1.64, 7.27, repro,
2007-03-23,-0.19, 2.52, 4.47, 1.87, 1.65, 7.28, repro,
2007-03-24,-0.07, 1.24, -3.29, 1.86, 1.64, 7.27, repro,
2007-03-25,-0.49, 2.60, 5.88, 1.87, 1.64, 7.26, repro,
2007-03-26,0.66, 2.61, 5.95, 1.86, 1.60, 7.07, repro,
2007-03-27,-1.17, 1.50, -1.16, 1.90, 1.61, 7.28, repro,
2007-03-28,-1.04, 1.25, -1.93, 1.93, 1.65, 7.47, repro,
2007-03-29,-0.46, 1.82, -0.62, 1.88, 1.64, 7.33, repro,
2007-03-30,0.41, 1.29, -0.50, 1.85, 1.60, 7.11, repro,
2007-03-31,0.63, 2.70, 3.59, 1.87, 1.60, 7.13, repro,
2007-04-01,-0.39, 1.97, 2.13, 1.87, 1.62, 7.21, repro,
2007-04-02,-0.96, 2.18, 1.55, 1.86, 1.60, 7.11, repro,
2007-04-03,-0.20, 2.48, -0.46, 1.90, 1.68, 7.48, repro,
2007-04-04,-0.30, 1.86, -4.80, 1.88, 1.64, 7.34, repro,
2007-04-05,-0.64, 2.14, -3.50, 1.92, 1.68, 7.46, repro,
2007-04-06,-1.78, 2.68, -3.74, 1.92, 1.67, 7.38, repro,
2007-04-07,-0.15, 1.80, 2.08, 1.88, 1.64, 7.25, repro,
2007-04-08,-0.66, 1.66, 5.04, 1.87, 1.61, 7.19, repro,
2007-04-09,-0.36, 2.29, 3.50, 1.86, 1.60, 7.14, repro,
2007-04-10,-0.40, 2.94, 7.97, 1.89, 1.64, 7.26, repro,
2007-04-11,0.03, 1.74, 4.61, 1.86, 1.59, 7.07, repro,
2007-04-12,0.30, 0.71, 5.84, 1.87, 1.60, 7.13, repro,
2007-04-13,-0.21, 1.66, -11.43, 1.87, 1.61, 7.18, repro,
2007-04-14,-0.50, 2.44, 5.15, 1.87, 1.61, 7.22, repro,
2007-04-15,-2.09, 0.04, 3.22, 1.88, 1.61, 7.25, repro,
2007-04-16,-0.25, 2.28, 5.37, 1.87, 1.60, 7.18, repro,
2007-04-17,-0.41, 1.05, -0.79, 1.86, 1.60, 7.14, repro,
2007-04-18,-0.40, 0.20, 3.10, 1.88, 1.61, 7.19, repro,
2007-04-19,-0.16, 1.64, 0.21, 1.86, 1.61, 7.21, repro,
2007-04-20,-2.58, 0.54, -2.49, 1.86, 1.61, 7.21, repro,
2007-04-21,0.57, 1.98, 2.10, 1.87, 1.60, 7.19, repro,
2007-04-22,1.38, 3.37, 1.60, 1.88, 1.59, 7.18, repro,
2007-04-23,1.48, 2.62, -4.15, 1.89, 1.63, 7.18, repro,
2007-04-24,1.30, 2.05, -7.42, 1.90, 1.65, 7.28, repro,
2007-04-25,-0.12, 2.37, 3.24, 1.88, 1.63, 7.21, repro,
2007-04-26,0.54, 2.78, 2.15, 1.87, 1.60, 7.17, repro,
2007-04-27,-0.14, 1.26, 3.14, 1.87, 1.59, 7.18, repro,
2007-04-28,0.62, 1.79, 1.56, 1.89, 1.59, 7.22, repro,
2007-04-29,-1.04, 2.42, -2.80, 1.86, 1.60, 7.14, repro,
2007-04-30,0.87, 2.06, -1.04, 1.86, 1.59, 7.13, repro,
2007-05-01,-0.24, 1.57, -0.38, 1.86, 1.59, 7.15, repro,
2007-05-02,-1.46, 1.76, 0.08, 1.94, 1.61, 7.43, repro,
2007-05-03,0.13, 3.26, 4.58, 1.99, 1.64, 7.58, repro,
2007-05-04,-0.84, 2.53, 4.76, 1.90, 1.60, 7.24, repro,
2007-05-05,-0.75, 0.50, -2.05, 1.91, 1.64, 7.23, repro,
2007-05-06,0.64, 2.65, -0.19, 1.87, 1.59, 7.14, repro,
2007-05-07,-0.90, 1.67, -0.91, 1.88, 1.58, 7.15, repro,
2007-05-08,0.33, 2.08, -1.10, 1.88, 1.58, 7.12, repro,
2007-05-09,0.05, 1.93, -2.71, 1.91, 1.59, 7.23, repro,
2007-05-10,-0.68, 2.29, -3.85, 2.03, 1.71, 7.77, repro,
2007-05-11,0.09, 2.91, -7.90, 1.98, 1.66, 7.58, repro,
2007-05-12,-0.17, 2.95, -1.46, 1.87, 1.59, 7.17, repro,
2007-05-13,0.07, 2.88, -1.55, 1.93, 1.62, 7.31, repro,
2007-05-14,0.45, 2.82, -0.05, 1.93, 1.62, 7.28, repro,
2007-05-15,0.13, 3.51, 0.78, 1.93, 1.65, 7.38, repro,
2007-05-16,-1.01, 3.30, -3.00, 1.89, 1.60, 7.18, repro,
2007-05-17,-0.60, 1.91, -3.91, 1.90, 1.62, 7.22, repro,
2007-05-18,-0.10, 3.56, -0.88, 1.95, 1.67, 7.41, repro,
2007-05-19,0.21, 3.60, -3.74, 1.94, 1.62, 7.27, repro,
2007-05-20,0.90, 2.83, 2.84, 1.96, 1.66, 7.41, repro,
2007-05-21,-0.57, 4.09, 1.60, 1.92, 1.63, 7.31, repro,
2007-05-22,-0.64, 1.64, 1.72, 1.91, 1.62, 7.25, repro,
2007-05-23,0.32, 2.66, 1.95, 1.99, 1.73, 7.53, repro,
2007-05-24,0.56, 2.33, 2.83, 2.02, 1.78, 7.71, repro,
2007-05-25,-0.99, 2.90, 1.41, 1.93, 1.63, 7.29, repro,
2007-05-26,-0.03, 3.67, 1.08, 1.93, 1.64, 7.34, repro,
2007-05-27,-0.35, 2.60, 1.02, 1.92, 1.64, 7.27, repro,
2007-05-28,-0.69, 1.88, -0.34, 1.91, 1.62, 7.20, repro,
2007-05-29,-0.27, 3.42, -1.31, 1.89, 1.59, 7.07, repro,
2007-05-30,-0.24, 2.20, 0.92, 1.94, 1.60, 7.24, repro,